If you wish to contribute or participate in the discussions about articles you are invited to join SKYbrary as a registered user

 Actions

Nancy-Ochey (BA 133) Air Base

From SKYbrary Wiki

LFSO
Airport
ICAO: LFSO
Summary
Name Nancy-Ochey (BA 133) Air Base
Region Europe
Territory France FR.gif
Location , Lorraine
Serving Nancy
Elevation 337.109 m
1,106 ft
1,106 ft337.109 m
Type medium airport
Coordinates 48° 34' 59.00" N, 5° 57' 18.00" E
Runways
Designator Length Width Surface ROPS
2/20 2401 m7,877.297 ft
45 m147.638 ft
CON /


METAR
Observation LFSO 162100Z AUTO 20011KT CAVOK 14/09 Q1013
Station Nancy / Ochey
Date/Time 16 October 2019 21:00:00
Wind direction 200°
Wind speed 11 kts
Lowest cloud amount clouds and visibility OK
Temperature 14°C
Dew point 9°C
Humidity 71%
QNH 1013 hPa
Weather condition n/a